Theta_e
311 312 312 312 311 311 311 310 312 312 311 311 311 311 310 311 311 311 312 312 311 311 311 312 312 312 310 303 304 312 318 323 321 319 313 310 309 308 305 306 307 305 306 307 308 308 307
312 312 311 311 311 310 310 311 310 311 311 311 311 311 311 311 311 311 312 312 312 311 311 311 312 311 305 297 309 309 310 311 312 316 313 312 310 311 307 306 305 307 306 306 308 308 308
310 311 312 312 312 310 309 309 309 310 310 310 311 311 311 311 311 312 312 312 312 312 311 311 311 310 302 300 310 311 311 309 313 312 311 315 314 309 309 305 309 307 303 305 306 307 306
311 310 310 312 312 312 311 309 309 309 309 309 309 310 311 311 312 312 312 312 311 312 311 311 311 310 299 309 311 309 310 307 311 314 312 314 314 310 308 309 306 302 303 298 305 308 308
309 310 310 310 310 311 311 311 309 309 308 309 308 309 310 311 311 311 311 311 311 312 311 311 309 306 298 309 304 308 308 304 305 307 308 307 307 306 307 301 299 301 295 298 301 309 306
307 308 308 309 309 309 310 309 309 309 308 308 308 309 310 311 311 310 310 310 311 309 310 312 309 301 304 298 304 310 316 306 303 305 302 300 299 298 298 298 292 294 295 298 299 306 307
307 307 306 307 308 308 308 309 309 309 307 307 307 307 309 310 310 310 309 309 303 304 306 301 301 301 301 305 308 304 314 312 311 307 296 298 293 293 297 298 299 299 298 298 303 307 303
306 306 307 307 307 307 307 308 308 308 306 306 306 307 308 309 309 310 310 303 302 302 295 302 301 301 304 305 298 302 310 304 304 299 302 297 291 298 301 299 298 298 297 297 301 305 303
306 306 305 305 306 306 306 307 307 307 306 306 305 306 307 308 309 308 307 303 309 308 296 297 302 301 302 303 298 299 304 305 302 299 298 296 298 300 298 296 295 296 296 297 297 302 304
304 304 304 304 306 306 306 307 306 306 307 306 305 305 307 307 303 307 305 308 310 309 291 293 296 299 301 301 296 304 304 302 300 296 297 298 301 299 298 296 297 293 300 299 298 297 293
303 303 303 303 304 304 305 305 305 305 305 305 304 305 306 306 303 303 305 310 310 305 279 294 295 306 303 297 298 299 305 299 295 296 297 295 297 296 295 297 298 296 301 298 299 297 296
302 302 303 302 303 304 304 305 305 304 305 304 304 304 305 304 306 307 309 311 307 288 278 289 297 296 296 298 297 301 298 300 299 294 297 297 303 299 298 299 300 301 298 298 298 296 290
302 302 302 302 303 303 304 305 304 304 304 304 304 304 303 304 301 312 312 305 287 281 291 289 293 296 295 295 296 298 294 292 291 285 287 292 293 299 300 295 299 297 294 289 288 289 288
302 301 301 301 301 302 303 304 304 304 303 303 304 304 304 305 307 310 307 292 280 287 289 294 292 294 291 294 296 296 295 293 297 294 291 286 285 291 298 296 295 295 294 288 284 288 292
300 301 301 301 301 301 302 304 303 304 303 303 303 302 302 306 310 309 295 282 284 288 292 290 292 290 290 293 294 295 295 295 296 297 290 289 289 297 294 296 296 295 292 297 292 295 291
301 300 300 301 301 301 302 303 303 303 302 302 300 298 299 308 310 303 288 283 288 293 293 292 288 291 288 291 291 292 294 296 295 299 301 295 289 295 295 298 296 293 297 289 292 285 284
299 299 300 300 301 301 302 302 302 302 301 301 298 291 300 308 308 293 283 286 289 294 293 290 290 289 290 289 290 289 290 296 297 297 302 298 294 292 295 293 292 292 291 294 294 292 286
299 299 300 300 301 301 301 301 301 302 302 299 295 286 303 308 289 290 284 289 292 293 294 292 292 291 290 290 289 289 289 293 298 298 294 299 296 289 291 298 300 298 295 294 289 289 293
300 300 300 300 300 301 301 301 302 302 302 299 290 291 303 304 284 286 289 288 292 290 291 290 289 291 292 289 286 290 291 296 297 295 293 295 293 287 289 293 297 294 296 297 296 295 291
299 300 300 300 301 301 302 302 302 302 302 300 291 285 293 296 295 289 287 287 287 293 292 292 291 292 290 289 292 289 290 294 296 296 296 296 290 288 285 289 295 292 294 296 295 291 291
301 301 301 301 302 302 302 302 302 303 302 300 290 287 292 285 288 290 289 288 287 287 292 293 290 291 289 286 288 289 292 293 295 298 296 294 287 289 290 291 292 293 293 294 293 294 291
301 302 301 302 302 302 302 302 302 302 302 295 285 286 292 290 291 289 288 287 286 288 290 289 289 291 291 288 289 287 291 292 291 295 294 295 288 291 289 292 292 290 293 294 295 295 295
301 301 302 302 301 301 302 302 303 302 301 293 295 296 293 289 289 287 288 289 288 291 292 293 292 290 289 291 294 296 296 296 295 292 291 291 289 287 284 290 291 287 292 294 295 298 297
301 302 302 302 302 302 302 303 303 303 302 296 294 295 289 285 288 288 289 290 290 291 290 293 294 292 295 299 299 298 296 294 294 294 294 290 289 287 285 287 278 290 299 297 296 297 302
302 302 302 303 303 303 303 303 302 302 303 297 298 294 290 286 289 288 290 290 291 293 292 293 295 296 300 296 289 286 288 288 291 294 293 293 289 285 283 284 287 290 295 294 292 292 303
301 302 302 302 302 302 302 302 302 302 302 300 297 299 296 289 289 292 289 291 289 289 291 293 298 300 298 291 288 282 282 286 286 289 295 294 293 288 286 281 280 292 298 301 300 291 300
301 301 301 302 302 301 301 302 302 302 302 302 297 299 295 289 294 294 290 290 295 293 291 293 292 292 296 288 285 284 284 289 284 285 287 288 288 284 285 283 288 297 301 303 288 290 299
302 301 301 301 301 302 301 302 302 302 302 302 297 300 293 290 295 298 298 293 294 294 289 293 290 290 287 285 286 287 287 289 287 289 289 287 285 285 286 283 281 300 299 293 296 302 301
302 302 302 301 302 302 302 302 302 302 302 302 295 301 298 291 293 301 302 303 301 299 296 295 292 291 293 290 291 291 288 291 288 284 294 287 290 289 289 289 298 300 301 301 301 300 302
Wind_Speed
11 11 10 12 10 10 12 11 10 10 9 10 10 12 14 15 16 16 14 14 15 17 17 17 16 17 15 8 20 5 4 9 10 13 15 16 18 19 22 16 20 21 20 20 19 16 18
14 14 12 10 10 10 11 10 10 9 9 10 11 11 13 15 16 17 15 15 15 17 17 17 15 14 14 18 7 4 4 7 14 13 15 15 15 15 17 18 20 15 18 20 21 22 19
14 13 14 14 12 11 9 8 10 9 9 9 11 12 13 16 17 18 17 16 17 18 19 17 16 11 14 26 10 9 7 10 9 14 18 16 15 10 9 15 17 17 19 20 21 21 22
15 16 16 14 12 10 9 8 8 10 10 10 12 11 13 15 16 17 17 18 19 20 20 18 13 12 12 13 12 14 16 18 12 9 12 8 7 14 19 15 11 13 18 19 18 25 19
16 13 15 12 10 11 12 10 8 10 10 11 10 11 12 14 14 16 17 20 23 21 16 9 9 12 14 2 10 13 18 17 15 18 14 12 13 16 15 18 17 15 18 20 20 17 12
16 16 15 14 13 11 14 12 9 8 7 10 11 12 13 14 14 15 18 24 22 8 11 10 8 7 9 8 4 5 2 9 12 11 15 14 13 18 19 18 20 17 22 20 20 20 16
17 18 18 17 15 15 14 13 10 8 7 10 10 12 14 12 14 15 16 15 7 10 10 13 5 16 15 1 8 10 7 8 11 14 18 19 18 24 24 23 24 21 24 23 18 12 5
19 17 18 14 14 15 17 13 11 8 7 10 9 12 13 13 15 14 14 8 5 4 13 18 24 26 26 22 14 13 10 12 16 18 18 13 24 27 23 22 19 24 26 24 20 23 11
18 18 14 14 17 17 18 16 16 7 6 8 9 10 12 13 15 13 9 7 6 7 10 12 18 16 15 15 18 17 16 18 17 18 19 21 10 25 20 20 21 25 24 21 24 22 16
16 16 15 15 15 16 17 16 12 11 11 7 8 8 10 14 9 5 2 1 4 5 8 6 7 3 7 7 9 21 13 16 17 23 19 20 20 13 18 24 24 23 21 22 20 20 15
18 18 17 16 15 14 13 14 12 13 11 9 7 8 9 7 11 8 6 2 5 4 8 8 9 8 7 10 5 7 6 19 24 18 11 17 17 20 22 21 16 21 16 17 22 21 17
17 18 18 16 16 13 14 14 12 11 11 9 6 8 8 12 12 12 6 6 5 7 10 7 9 10 10 12 8 7 3 11 12 20 18 22 7 9 18 14 15 17 16 16 14 13 17
19 19 16 14 14 15 15 13 11 10 9 9 8 8 8 8 7 3 6 6 8 10 5 10 7 9 8 8 10 10 10 12 10 11 20 19 22 16 12 12 17 18 14 9 12 12 13
20 17 17 17 17 16 14 13 11 10 11 9 7 7 10 10 10 8 6 8 13 4 19 5 3 9 10 7 6 10 9 10 15 14 12 14 11 29 21 19 11 18 17 9 12 10 10
20 21 18 18 17 16 13 13 13 13 8 6 7 10 10 10 12 6 4 11 12 17 10 3 8 11 9 8 5 9 12 7 2 12 9 5 12 2 12 25 21 17 18 19 22 17 9
20 19 18 18 17 16 16 14 13 10 6 2 8 6 10 10 10 7 5 14 18 7 8 5 13 5 12 8 9 7 12 1 3 4 7 5 9 6 14 12 22 25 15 13 13 16 17
20 20 20 19 19 17 14 13 12 9 8 3 6 4 7 12 8 5 6 9 21 16 2 7 7 1 2 0 6 3 1 8 1 3 6 4 7 2 5 10 13 15 20 16 12 13 11
21 21 21 21 17 15 15 14 13 12 10 6 5 5 4 8 6 4 11 9 3 20 17 12 6 8 6 5 6 4 4 3 3 6 5 5 7 8 11 3 9 13 16 18 13 16 12
23 23 22 21 20 18 17 17 16 14 14 6 4 8 5 7 9 13 15 12 10 10 10 11 18 12 14 9 6 9 8 4 3 4 8 10 3 7 12 11 11 10 11 12 15 16 19
22 22 22 22 22 21 20 19 18 18 18 10 3 5 8 7 9 9 15 21 22 8 21 14 8 12 9 11 11 7 6 3 1 6 6 6 9 11 11 10 11 6 10 9 13 13 14
24 24 23 23 23 23 22 22 21 20 20 10 5 6 8 7 13 18 19 12 15 22 10 11 11 15 11 10 12 14 14 13 10 5 7 7 12 13 15 19 16 17 14 14 18 17 19
27 26 24 23 23 24 24 23 24 23 23 11 5 6 9 14 16 14 18 19 21 20 10 15 15 13 15 16 13 4 8 9 8 8 6 3 7 9 14 15 20 22 20 21 19 19 23
25 23 23 23 22 22 22 24 24 25 24 6 7 11 8 12 19 17 16 19 16 20 19 19 15 14 13 13 11 13 10 10 12 10 10 7 5 3 12 15 11 14 20 21 17 18 20
23 22 19 19 20 21 22 19 19 24 27 7 3 6 9 13 12 16 23 19 18 20 21 15 17 14 6 3 6 11 14 16 17 17 15 9 11 6 6 9 11 10 6 3 7 13 21
21 20 18 18 18 18 18 18 18 20 26 9 5 6 8 13 19 22 18 18 18 14 17 21 16 5 4 2 4 8 8 10 21 21 20 19 14 4 5 9 15 21 9 3 5 15 21
20 19 19 19 19 19 19 19 19 21 20 7 6 5 5 9 19 23 21 22 12 13 14 12 2 6 5 3 4 8 6 9 4 8 22 20 17 11 8 10 7 6 6 6 6 8 17
22 21 21 21 21 20 21 21 21 21 23 13 4 11 5 4 13 17 18 15 16 19 9 7 7 5 5 5 6 7 8 2 5 5 7 15 13 13 12 11 10 3 9 8 4 8 23
20 23 22 22 22 22 22 22 22 21 22 16 4 11 3 2 12 16 19 18 12 8 6 9 5 3 2 6 5 8 6 5 7 9 6 9 10 8 12 10 14 10 2 3 2 6 5
19 19 22 23 23 23 23 23 23 23 23 23 4 10 7 3 5 11 16 15 18 17 11 9 7 7 8 8 8 4 6 2 8 7 13 8 10 3 4 5 5 8 13 10 11 10 12
Wind_Direction
297 302 306 305 300 306 300 306 302 310 309 316 305 312 312 316 319 319 318 313 313 311 307 309 317 323 318 254 254 177 144 167 200 204 226 222 223 227 231 240 242 235 249 259 267 257 266
299 295 292 288 288 288 302 311 314 312 304 313 314 318 316 317 315 313 311 311 308 304 300 299 300 311 282 265 283 316 271 249 243 211 230 237 237 240 255 245 261 260 251 255 263 264 258
298 306 302 288 284 282 284 302 307 303 310 318 322 320 320 316 312 306 306 304 299 293 294 292 290 274 265 250 313 313 232 266 256 234 237 229 250 247 246 262 263 265 264 270 258 257 254
306 289 289 297 293 274 263 271 282 295 300 307 316 314 311 312 311 302 303 297 291 290 291 285 270 243 257 266 283 261 254 255 245 260 263 284 252 261 259 277 273 257 250 262 263 250 245
306 302 294 288 299 301 273 270 275 286 290 292 307 314 311 310 310 310 307 297 287 285 278 255 205 223 261 117 238 247 233 241 233 234 243 259 252 240 232 236 250 240 256 259 267 227 238
292 295 294 291 287 291 293 270 272 280 305 307 313 315 316 309 311 312 308 289 279 294 228 207 266 227 251 267 352 304 283 213 222 226 224 229 237 237 223 229 234 236 244 249 252 266 212
286 285 284 282 283 282 285 287 279 291 302 299 309 316 319 313 313 311 307 297 203 202 209 253 256 261 294 81 282 238 174 203 215 198 212 199 217 225 230 222 246 249 257 263 274 265 294
283 283 277 278 280 277 281 275 262 255 275 296 307 318 316 318 308 302 283 294 10 2 294 266 256 260 260 285 280 254 240 220 205 222 217 203 232 238 232 241 235 248 259 260 264 274 234
297 284 272 285 287 282 278 273 268 267 266 272 299 318 318 315 305 279 265 308 339 344 266 280 243 249 253 231 243 247 220 218 232 234 238 229 233 231 235 221 240 243 247 251 257 270 274
293 293 291 289 293 284 286 274 269 262 261 270 290 305 312 316 288 301 258 43 31 317 274 199 186 218 184 224 244 230 234 232 229 244 249 243 251 247 226 231 219 244 241 249 264 269 266
284 289 287 288 281 287 287 279 258 260 262 250 260 298 308 300 309 280 83 25 329 237 278 105 132 118 150 214 357 156 237 217 238 231 235 229 229 233 235 229 231 251 251 247 257 256 266
278 277 280 284 282 277 277 270 251 258 255 255 280 287 309 260 240 254 283 294 267 225 238 168 144 187 193 208 238 118 168 230 233 249 262 250 213 259 242 228 233 239 247 244 257 250 248
276 277 276 282 288 280 270 264 247 240 234 241 256 270 269 293 264 303 268 226 218 245 103 183 194 186 224 178 200 198 173 195 188 198 231 238 249 235 231 220 222 229 227 230 217 225 246
280 277 282 284 283 282 281 261 242 239 246 248 250 258 244 243 247 278 259 222 231 261 228 65 257 212 239 174 202 197 201 218 224 238 280 201 225 223 212 224 193 203 205 230 218 238 259
282 278 270 270 274 275 269 256 241 231 241 271 276 254 238 235 233 221 232 224 224 244 290 242 223 226 182 193 248 199 218 232 106 212 255 284 238 48 217 219 242 197 213 236 268 275 271
278 278 277 274 270 265 265 257 252 242 218 236 274 295 256 235 215 212 235 237 251 264 333 280 254 222 193 165 210 236 178 48 124 311 254 286 275 224 192 223 214 238 239 227 235 256 262
281 281 278 275 272 265 256 246 237 220 250 205 266 244 225 199 165 203 231 233 233 270 141 313 294 278 338 41 306 231 349 120 301 0 314 304 256 240 173 208 217 204 229 239 251 228 258
281 275 273 274 259 257 252 246 239 230 230 216 250 225 182 144 192 203 229 252 222 282 230 247 302 302 289 344 291 266 280 340 40 322 309 26 306 260 252 274 234 238 217 229 235 243 246
276 270 265 262 259 254 250 246 238 225 210 211 228 242 177 195 221 222 233 228 267 233 241 240 241 266 283 278 277 245 260 35 27 322 29 349 225 269 231 237 249 243 240 245 239 250 261
273 267 264 259 257 252 246 239 235 225 216 221 227 219 205 214 226 260 248 232 231 257 242 235 256 240 243 248 252 274 251 258 145 303 87 306 267 270 287 328 326 268 243 267 275 249 253
277 271 265 260 255 249 245 240 231 223 216 200 210 228 224 187 231 234 242 255 259 225 248 236 246 232 232 246 255 248 261 273 277 267 268 247 263 267 270 284 279 276 271 263 258 264 264
276 272 266 259 253 249 245 240 230 218 212 208 200 200 238 252 256 219 229 247 255 262 177 214 226 228 235 251 254 266 319 294 298 277 280 318 267 277 271 276 275 269 262 262 266 268 268
277 274 264 254 250 245 241 238 226 214 206 189 217 233 240 245 239 249 238 231 245 244 237 238 218 243 246 254 281 294 294 292 274 280 274 268 264 255 257 257 304 263 247 258 286 298 291
275 271 266 256 244 237 230 228 218 212 203 203 179 173 224 241 236 237 241 233 247 245 240 241 235 227 257 24 288 270 262 259 249 240 242 240 239 237 279 292 260 243 122 221 286 294 298
271 265 260 252 244 236 227 224 219 210 209 205 165 203 203 236 241 245 248 243 240 247 229 234 236 9 151 85 297 251 227 237 233 230 218 217 231 244 244 243 277 290 230 288 281 308 297
265 260 254 249 243 234 226 223 219 210 201 208 186 204 235 227 227 238 243 240 240 234 234 236 52 128 157 106 235 257 234 235 178 195 198 212 214 223 226 248 264 39 100 177 265 248 14
258 253 249 244 240 235 229 222 218 212 204 199 181 206 228 235 241 235 232 229 228 220 236 201 135 169 171 176 236 245 241 220 260 219 186 190 194 220 231 245 273 320 21 148 265 342 338
266 250 244 240 236 234 230 224 216 210 203 195 183 180 216 232 241 230 240 225 230 233 199 137 116 137 150 206 235 232 262 241 259 270 155 191 192 202 237 244 249 357 65 22 326 272 290
273 257 247 241 235 231 225 221 216 208 201 191 196 172 178 272 305 301 269 286 277 214 202 180 210 142 188 213 230 235 249 248 256 259 167 169 204 244 243 229 18 30 60 29 4 347 337